Miscellaneous Local Product
Issued by NWS Hastings, NE

Home | Current Version | Previous Version | Graphics & Text | Print | Product List | Glossary On
Versions: 1 2 3 4 5 6 7 8 9 10 11 12 13 14 15 16 17 18 19 20 21 22 23 24 25 26 27 28 29 30 31 32 33 34 35 36 37 38 39 40 41 42 43 44 45 46 47 48 49 50
000
AXUS43 KGID 281602
MISGRI

GID CWA HOURLY WEATHER ROUNDUP
NATIONAL WEATHER SERVICE HASTINGS NE
1000 AM CST SUN DEC 28 2014

NOTE: "FAIR" INDICATES FEW OR NO CLOUDS BELOW 12,000 FEET WITH NO
SIGNIFICANT WEATHER AND/OR OBSTRUCTIONS TO VISIBILITY.

...SOUTH CENTRAL NEBRASKA...

CITY           SKY/WX    TMP DP  RH WIND       PRES   REMARKS
GRAND ISLAND   SUNNY     15   8  73 W6        30.11S WCI   6
HASTINGS       SUNNY     18  10  71 SW5       30.09R WCI  11
KEARNEY        SUNNY     16   9  73 CALM      30.08R
ORD            SUNNY      9   5  84 NW6       30.08S WCI  -1
YORK           SUNNY     16  10  79 W5        30.12S WCI   9
AURORA         SUNNY     19  12  74 NW5       30.11S WCI  12
LEXINGTON      MOSUNNY   10   6  84 NW6       30.07S WCI   1
HOLDREGE       SUNNY     15   8  73 CALM      30.08R
HEBRON         SUNNY     23  16  75 SW7       30.15F WCI  15

...NEBRASKA PANHANDLE...

CITY           SKY/WX    TMP DP  RH WIND       PRES   REMARKS
CHADRON        CLOUDY    11   5  77 CALM      29.96S
ALLIANCE       CLOUDY    15   9  76 SE5       29.94S WCI   8
SCOTTSBLUFF    CLOUDY    10   5  80 CALM      29.95S
SIDNEY         CLOUDY    11   4  73 NW7       29.97R WCI   0

...WESTERN AND NORTH CENTRAL NEBRASKA...

CITY           SKY/WX    TMP DP  RH WIND       PRES   REMARKS
VALENTINE      MOSUNNY    7   3  84 SW5       30.03R WCI  -2
AINSWORTH      MOSUNNY    7   1  78 SW3       30.03S
ONEILL         MOSUNNY   10   7  86 W5        30.08S WCI   2
BROKEN BOW     MOSUNNY   13   9  84 CALM      30.05R
IMPERIAL       PTSUNNY   10   3  73 CALM      30.02F
NORTH PLATTE   PTSUNNY    7   3  84 N5        30.05R WCI  -2
MCCOOK         PTSUNNY   11   5  77 W9        30.08R WCI  -2

...EASTERN NEBRASKA...

CITY           SKY/WX    TMP DP  RH WIND       PRES   REMARKS
NORFOLK        SUNNY     12   7  80 W6        30.11R WCI   3
SO SIOUX CITY  SUNNY     12  11  95 CALM      30.16R
TEKAMAH        SUNNY     16  11  80 CALM      30.17R
COLUMBUS       SUNNY     12   3  67 CALM      30.14R
ALBION         SUNNY     12   7  79 NW7       30.10S WCI   1
OMAHA EPPLEY   MOSUNNY   22  16  78 S3        30.18R
OFFUTT AFB     SUNNY     22  16  78 W3        30.16S
MILLARD        SUNNY     22  15  74 W3        30.16R
LINCOLN        SUNNY     21  14  74 SW8       30.18R WCI  11
NEBRASKA CITY  SUNNY     25  18  76 W7        30.16S WCI  17
BEATRICE       SUNNY     22  17  81 SW7       30.17S WCI  14
FALLS CITY     SUNNY     27  21  78 SW3       30.18F

...NORTHERN KANSAS...

CITY           SKY/WX    TMP DP  RH WIND       PRES   REMARKS
GOODLAND       SUNNY     16   9  74 NW3       30.01S
HILL CITY      SUNNY     17  11  77 SW3       30.13S
NORTON         SUNNY     18   9  68 SW6       30.09R WCI   9
PHILLIPSBURG   SUNNY     19  14  79 SW3       30.15S
BELOIT         SUNNY     21  16  79 SW3       30.17S
HAYS           SUNNY     21  10  63 W3        30.13S
RUSSELL        SUNNY     22  19  89 SW5       30.14R WCI  16
CONCORDIA      SUNNY     25  19  78 W6        30.16F WCI  18
SALINA         SUNNY     27  20  75 S7        30.21R WCI  19
TOPEKA         SUNNY     28  20  71 CALM      30.25R



USA.gov is the U.S. government's official web portal to all federal, state and local government web resources and services.